Burley, ID

7:06 AM MDT on June 25, 2017 (GMT -0600)
Burley Municipal

Weather History for KBYI - March, 2014

Change the Weather History Date:

Tuesday, March 4, 2014

  Actual Average Record
Temperature  
Mean Temperature 46 °F 36 °F  
Max Temperature 54 °F 46 °F 71 °F (1987)
Min Temperature 37 °F 26 °F 2 °F (1985)
Degree Days  
Heating Degree Days 19 29  
Month to date heating degree days 84 118  
Since 1 July heating degree days 4779 5140  
Cooling Degree Days 0 0  
Month to date cooling degree days 0 0  
Year to date cooling degree days 0 0  
Moisture  
Dew Point 36 °F    
Average Humidity 68    
Maximum Humidity 92    
Minimum Humidity 44    
Precipitation  
Precipitation 0.06 in 0.03 in 0.62 in (1991)
Month to date precipitation 0.46 0.13  
Year to date precipitation 2.30 1.81  
Sea Level Pressure  
Sea Level Pressure 29.99 in    
Wind  
Wind Speed 13 mph (WSW)    
Max Wind Speed 23 mph    
Max Gust Speed 34 mph    
Visibility 10 miles    
Events Rain    
T = Trace of Precipitation, MM = Missing Value Source: NWS Daily Summary

Daily Weather History Graph

Daily Weather History Graph

Search for Another Location

Airport or City:

Trip Planner

Search our weather history database for the weather conditions in past years. The results will help you decide how hot, cold, wet, or windy it might be!

Date:

Astronomy

Mar. 04, 2014 Rise Set
Actual Time 7:05 AM MST 6:28 PM MST
Civil Twilight 6:37 AM MST 6:56 PM MST
Nautical Twilight 6:04 AM MST 7:29 PM MST
Astronomical Twilight 5:32 AM MST 8:02 PM MST
Moon 8:48 AM MST (3/4) 10:46 PM MST (3/4)
Length of Visible Light 12h 19m
Length of Day
11h 23m
Waxing Crescent, 15% of the Moon is Illuminated
Mar 4
Waxing Crescent
Mar 8
First Quarter
Mar 16
Full
Mar 23
Last Quarter
Mar 30
New

Hourly Weather History & Observations

Time (MST) Temp. Windchill Dew Point Humidity Pressure Visibility Wind Dir Wind Speed Gust Speed Precip Events Conditions
12:34 AM 45.0 °F 38.9 °F 36.0 °F 71% 29.96 in 10.0 mi WNW 12.7 mph 25.3 mph 0.00 in Rain Light Rain
12:53 AM 44.1 °F 38.6 °F 37.0 °F 76% 29.93 in 10.0 mi West 10.4 mph - 0.00 in   Overcast
1:53 AM 43.0 °F 37.2 °F 37.9 °F 82% 29.92 in 9.0 mi WSW 10.4 mph - 0.01 in Rain Light Rain
2:53 AM 42.1 °F 35.7 °F 39.9 °F 92% 29.94 in 8.0 mi WSW 11.5 mph - 0.03 in Rain Light Rain
3:53 AM 42.1 °F 34.9 °F 39.9 °F 92% 29.92 in 10.0 mi SW 13.8 mph - 0.02 in Rain Light Rain
4:53 AM 41.0 °F 33.5 °F 37.9 °F 89% 29.91 in 10.0 mi SSW 13.8 mph - 0.00 in   Overcast
5:53 AM 39.9 °F 31.4 °F 37.0 °F 89% 29.90 in 10.0 mi SSW 16.1 mph - N/A   Overcast
6:53 AM 41.0 °F 33.9 °F 36.0 °F 82% 29.93 in 10.0 mi SW 12.7 mph - N/A   Overcast
7:53 AM 41.0 °F 34.3 °F 37.0 °F 86% 29.96 in 10.0 mi WSW 11.5 mph - N/A   Scattered Clouds
8:53 AM 42.1 °F 33.9 °F 37.0 °F 82% 29.98 in 10.0 mi West 17.3 mph 21.9 mph N/A   Partly Cloudy
9:53 AM 43.0 °F 35.4 °F 37.9 °F 82% 29.98 in 10.0 mi West 16.1 mph 23.0 mph N/A   Scattered Clouds
10:53 AM 48.0 °F - 39.0 °F 71% 29.97 in 10.0 mi West 17.3 mph 25.3 mph N/A   Clear
11:53 AM 50.0 °F - 37.0 °F 61% 29.99 in 10.0 mi West 19.6 mph 25.3 mph N/A   Partly Cloudy
12:53 PM 50.0 °F - 36.0 °F 59% 30.00 in 10.0 mi West 19.6 mph 27.6 mph N/A   Partly Cloudy
1:53 PM 52.0 °F - 35.1 °F 53% 30.01 in 10.0 mi West 18.4 mph 29.9 mph N/A   Mostly Cloudy
2:53 PM 52.0 °F - 32.0 °F 47% 30.01 in 10.0 mi West 16.1 mph 28.8 mph N/A   Mostly Cloudy
3:53 PM 52.0 °F - 32.0 °F 47% 30.00 in 10.0 mi West 18.4 mph 29.9 mph N/A   Clear
4:53 PM 51.1 °F - 30.9 °F 46% 30.01 in 10.0 mi West 18.4 mph 24.2 mph N/A   Clear
5:53 PM 48.0 °F - 32.0 °F 54% 30.02 in 10.0 mi West 9.2 mph - N/A   Clear
6:53 PM 44.1 °F 38.1 °F 34.0 °F 68% 30.05 in 10.0 mi WSW 11.5 mph - N/A   Clear
7:53 PM 41.0 °F 37.1 °F 35.1 °F 79% 30.08 in 10.0 mi SSW 5.8 mph - N/A   Clear
8:53 PM 39.9 °F 35.1 °F 34.0 °F 79% 30.09 in 10.0 mi SSW 6.9 mph - N/A   Scattered Clouds
9:53 PM 39.9 °F 35.8 °F 33.1 °F 77% 30.10 in 10.0 mi SSW 5.8 mph - N/A   Clear
10:53 PM 37.9 °F 31.5 °F 32.0 °F 79% 30.10 in 10.0 mi SSW 9.2 mph - N/A   Clear
11:53 PM 37.9 °F 30.0 °F 32.0 °F 79% 30.09 in 10.0 mi SW 12.7 mph - N/A   Clear